User: anonymous   Login
Location: St. Malo Provincial Park
(49.3214°N, 96.9305°W)
Time: 22:04:20
(UTC-06:00)
Language:

Iridium 6 - Orbit

View from above orbital plane
View from above orbital plane
View from above satellite
View from above satellite

Ground track
Ground track

The orbit data is extracted from the following two-line orbital elements,

1 24794U 97020C   15063.53657882  .00000522  00000-0  17922-3 0  9996
2 24794 086.3972 308.1819 0001948 087.3878 272.7541 14.34212886933424
Epoch (UTC): 04 March 2015 12:52:40
Eccentricity: 0.0001948
inclination: 86.3972°
perigee height: 776 km
apogee height: 779 km
right ascension of ascending node: 308.1819°
argument of perigee: 87.3878°
revolutions per day: 14.34212886
mean anomaly at epoch: 272.7541°
orbit number at epoch: 93342

The dashed part of the orbit path shows where the satellite is in the earth's shadow,  

DLR